Flag for Mauritania Weather past 2 weeks in Nouakchott, Mauritania

Now
73 °F

Clear.


Feels Like: 74 °F
Forecast: N/A
Wind: 8 mph from East

Location: Nouakchott Airport

Current Time: Mar 3, 2015 at 11:14:23 PM

Latest Report: Mar 3, 2015 at 11:00 PM


Visibility: 4 mi

Pressure: 29.95 "Hg

Humidity: 13%

Dew point: 19 °F

Location of NouakchottLocation

Historic Weather in Nouakchott — Graph

°F

Nouakchott temperature yesterday

Maximum temperature yesterday: 93 °F (at 2:30 PM)
Minimum temperature yesterday: 61 °F (at 6:00 AM)
Average temperature yesterday: 79 °F

Past Weeks' High & Low Weather Summary

 TemperatureHumidityPressure
High95 °F (Feb 25, 3:00 PM)83% (Feb 23, 1:30 AM)30.12 "Hg (Feb 23, 1:30 AM)
Low55 °F (Mar 1, 7:00 AM)5% (Feb 25, 3:00 PM)29.83 "Hg (Feb 18, 4:30 PM)
Average74 °F28%29.97 "Hg
* Reported Feb 16 9:00 PM — Mar 3 9:30 PM, Nouakchott, Weather by CustomWeather, © 2015

Note: Actual official high and low records may vary slightly from our data, if they occured in-between our weather recording intervals... More about our weather records

Advertising

Nouakchott weather history for previous 24 hours

 ConditionsComfort  
Time TempWeatherWind HumidityBarometerVisibility
9:30 PM
Tue, Mar 3
79 °FDuststorm.8 mph11%29.95 "Hg3 mi
9:00 PM79 °FDuststorm.8 mph12%29.92 "Hg3 mi
8:30 PM81 °FDuststorm.7 mph11%29.92 "Hg3 mi
8:00 PM82 °FSandstorm.9 mph9%29.89 "Hg2 mi
7:30 PM84 °FSandstorm.12 mph9%29.89 "Hg2 mi
7:00 PM86 °FSandstorm.12 mph9%29.89 "Hg2 mi
6:30 PM88 °FSandstorm.14 mph8%29.89 "Hg2 mi
6:00 PM90 °FSandstorm.14 mph7%29.86 "Hg2 mi
5:30 PM90 °FSandstorm.15 mph8%29.86 "Hg2 mi
5:00 PM90 °FSandstorm.15 mph8%29.86 "Hg2 mi
4:30 PM91 °FSandstorm.14 mph8%29.86 "Hg2 mi
4:00 PM91 °FSandstorm.15 mph7%29.89 "Hg2 mi
3:30 PM91 °FSandstorm.18 mph8%29.89 "Hg2 mi
3:00 PM91 °FSandstorm.18 mph8%29.89 "Hg2 mi
2:30 PM91 °FSandstorm.20 mph9%29.89 "Hg2 mi
2:00 PM90 °FSandstorm.17 mph8%29.92 "Hg2 mi
1:30 PM90 °FSandstorm.20 mph9%29.92 "Hg2 mi
1:00 PM90 °FSandstorm.22 mph9%29.95 "Hg2 mi
12:30 PM88 °FSandstorm.22 mph9%29.95 "Hg2 mi
12:00 PM88 °FSandstorm.22 mph10%29.98 "Hg2 mi
11:30 AM86 °FLow level haze.22 mph10%29.98 "Hg2 mi
11:00 AM84 °FLow level haze.21 mph10%29.98 "Hg2 mi
10:30 AM82 °FLow level haze.17 mph11%29.98 "Hg2 mi
10:00 AM81 °FLow level haze.14 mph14%29.98 "Hg3 mi
9:30 AM79 °FDuststorm.12 mph13%29.98 "Hg3 mi
9:00 AM75 °FDuststorm.10 mph16%29.98 "Hg3 mi
8:30 AM75 °FDuststorm.9 mph16%29.95 "Hg3 mi
8:00 AM73 °FClear.9 mph17%29.95 "Hg4 mi
7:30 AM72 °FClear.9 mph19%29.92 "Hg4 mi
7:00 AM73 °FClear.9 mph16%29.92 "Hg4 mi
6:30 AM73 °FClear.9 mph17%29.92 "Hg4 mi
6:00 AM75 °FClear.10 mph15%29.92 "Hg4 mi
5:30 AM75 °FClear.13 mph15%29.89 "Hg4 mi
5:00 AM75 °FClear.12 mph15%29.92 "Hg4 mi
4:30 AM77 °FClear.10 mph13%29.92 "Hg4 mi
4:00 AM77 °FClear.12 mph14%29.92 "Hg4 mi
3:30 AM77 °FClear.10 mph13%29.92 "Hg4 mi
3:00 AM77 °FClear.10 mph13%29.92 "Hg4 mi
2:30 AM79 °FClear.13 mph12%29.95 "Hg4 mi
2:00 AM79 °FClear.13 mph12%29.95 "Hg4 mi
1:30 AM79 °FClear.12 mph12%29.95 "Hg4 mi
1:00 AM79 °FClear.10 mph12%29.95 "Hg4 mi
12:30 AM81 °FClear.13 mph11%29.95 "Hg4 mi
12:00 AM82 °FClear.14 mph10%29.95 "Hg4 mi
11:30 PM
Mon, Mar 2
81 °FClear.10 mph11%29.95 "Hg4 mi
11:00 PM79 °FClear.9 mph11%29.95 "Hg4 mi
Weather by CustomWeather, © 2015

See weather overviewHow to use our weather pages